Location: Oakhurst
(33.6448°N, 111.9543°W)
Time: 21:34:54
(UTC+00:00)

FO-99 - Pass Details

Date: 01 August 2021
Orbit: 471 x 503 km, 97.2° (Epoch: 25 September)

Event Time Altitude Azimuth Distance (km) Brightness Sun altitude
Exits shadow 04:17:21 - 211° (SSW) 2,224 ? -20.3°
Reaches altitude 10° 04:19:04 10° 227° (SW) 1,711 ? -20.5°
Maximum altitude 04:21:20 16° 266° (W) 1,397 ? -20.9°
Drops below altitude 10° 04:23:38 10° 304° (NW) 1,721 ? -21.3°
Sets 04:26:25 0° 327° (NNW) 2,609 ? -21.7°
